Semi-1

operational
NORAD ID: 66312 Int'l Des: 2025-248 Owner: UNK Country: UNK
LEOCIRCULAR

About Semi-1

Description loading...

Live Position

Loading 3D Globe...

Upcoming Passes

Altitude History

Altitude vs Time

uPlot chart will show altitude changes over time

Two-Line Element Set

1 66312U 25248T 25347.25768231 .00023328 00000-0 11230-2 0 9991
2 66312 45.4012 36.8739 0001832 48.7393 311.3650 15.18447546 7517
Epoch: Dec 13, 2025 • Age: 19 hours

Current Status

Altitude 511.8 km
Velocity 7.61 km/s
Sub-Earth Point 35.36°N, 60.2°E
Launch Date Nov 2, 2025
Age 0.1 years
Type other

Technical Details

Classification Payload
Mass 12.00 kg
Dry Mass 12.00 kg
Total Mass 12.00 kg
Length 0.30 m
Diameter 0.20 m
Span 0.30 m
Shape Box
Manufacturer UNK
Bus Type Cubesat 6U
Phase Status In Orbit
Owner/State UNK/UNK

Large Constellations

Loading constellations...